COSMOS 2251 DEB, 34389

Orbit data source: Space-Track

COSMOS 2251 DEB, 34389 is space debris in LEO originally from a launch on Wed, 16 Jun 1993 UTC launched from the Plesetsk Missile And Space Complex (PKMTR). The debris from Iridium 33, an American commercial communications satellite, has been tracked extensively since its accidental collision with the defunct Russian satellite Cosmos 2251 in 2009. This event, occurring at high speed in low Earth orbit (LEO), generated thousands of pieces of space debris, significantly increasing the risk of further collisions. The Iridium 33 debris cloud has impacted space traffic management and orbital debris mitigation strategies, making it a subject of ongoing study in space situational awareness.

Loading next visibility...
Identifier
34389, 1993-036QE
Orbit
LEO
Country
Flag of CISCIS
Related business
Manufacturer
Unknown
Mission
Spacecraft
Bus & Motor
Unknown
Mass
Unknown
Launch date (UTC)
1993-06-16 (33 years ago)
Launch vehicle
Unknown
Launch site
Plesetsk Missile And Space Complex (PKMTR)
Object type
Payload
Rocket body
Debris
Shape & HBR
Unknown shape, 0.1 m
Radar Cross Section
Small (<0.1 m²)

Expand to show TLE details & history
Last TLE update: 11 hours ago

TLE from 11 hours ago
0 COSMOS 2251 DEB
1 34389U 93036QE  26119.73865001  .00001063  00000-0  33112-3 0  9990
2 34389  74.0201 353.8427 0028626  76.3228 345.6824 14.41905884900013
Epoch: 2026-04-29T17:43Z
TLE epoch observation values (Epoch: 2026-04-29T17:43:39.360Z)
Latitude
58.12717°
Longitude
-102.50283°
Altitude
741.879 km
Speed
7.5 km/s
True Right ascension
01h 24m 25s
True Declination
57° 58' 21"
Sunlit
Object was in daylight at epoch
Visualization orbit readout
Latitude
Unknown
Longitude
Unknown
Altitude
Unknown
Speed
Unknown
Apparent Right ascension
Unknown
Apparent Declination
Unknown
Sunlit
N/A
Visualization observer readout
Local Sidereal Time
12:34:42
Azimuth
Unknown
Elevation
Unknown
Doppler factor
Unknown
Orbital elements
Apogee altitude
770.232 km
Perigee altitude
729.423 km
Semi-major axis
7,127.964 km
Eccentricity
0.00286
Inclination
74.0201°
RAAN
353.8427°
Arg. of periapsis
76.3228°
True anomaly
345.601°
Mean anomaly
345.6824°
Eccentric anomaly
345.64173°
Mean motion
3.60657 °/min
Orbital period
99.82 mins
BSTAR
0.00033112

Documentation

Showing up to 5 results
|